Dewpoint
74 75 75 73 73 73 72 73 73 72 74 72 70 70 70 71 71 71 70 68 69 69 70 70 70 71 69 72 72 73 73 71 69 70 73 71 69 70 70 71 71 70 67
73 74 74 74 73 72 72 72 74 73 74 73 71 70 70 71 71 69 68 67 67 67 68 68 68 67 70 72 69 72 72 72 71 69 71 71 70 70 71 69 69 68 69
68 69 69 67 72 72 72 72 73 72 73 72 72 70 69 68 71 71 69 68 68 69 69 70 69 70 71 73 70 72 69 72 71 70 70 70 65 68 66 65 65 66 66
67 66 65 65 65 69 73 74 73 73 72 72 73 70 69 68 68 71 70 69 71 69 70 69 69 69 70 71 71 70 71 70 68 70 69 71 68 67 66 64 63 64 64
68 66 65 66 66 67 72 73 73 73 72 73 72 72 72 67 64 70 70 69 70 69 70 68 67 69 68 68 69 72 72 68 64 64 66 69 68 66 64 64 64 63 63
68 67 65 65 65 65 71 73 73 74 74 73 72 71 71 65 62 64 66 67 70 68 69 68 69 68 66 66 66 66 69 69 70 70 68 62 68 65 66 65 62 60 59
69 69 67 66 64 65 71 72 73 73 75 74 72 71 70 70 62 62 64 67 66 70 70 70 67 62 66 66 65 64 64 64 65 69 67 66 68 68 66 63 61 60 61
66 68 69 69 69 71 71 73 73 75 72 71 71 74 72 71 60 60 62 69 69 68 69 70 68 68 68 66 68 66 65 65 65 62 67 68 69 70 68 65 63 63 62
64 65 66 66 67 68 70 70 71 72 70 70 71 73 73 72 61 59 62 69 68 68 68 68 68 68 65 61 65 68 67 68 61 63 62 63 64 65 66 65 62 61 59
66 66 66 68 68 69 69 68 69 70 70 68 70 71 68 73 61 57 61 66 67 64 70 70 63 66 61 58 67 67 68 66 65 65 66 62 63 64 62 67 63 61 60
64 66 66 67 67 68 69 71 71 71 70 70 70 71 71 70 69 55 55 67 64 64 63 64 66 59 55 54 58 67 66 70 67 68 64 63 63 66 64 66 66 62 61
62 64 64 65 65 66 67 67 67 68 68 67 68 68 68 69 62 57 55 56 63 64 63 65 68 56 53 53 56 57 57 61 70 66 63 67 62 62 63 66 68 69 70
62 62 62 63 63 65 65 66 64 66 65 65 63 63 63 64 66 58 54 54 55 62 63 60 56 52 52 53 54 54 56 64 62 64 62 64 69 63 68 69 69 69 69
59 61 62 62 61 62 61 61 61 61 62 61 61 61 60 62 63 62 61 62 57 59 60 61 60 58 58 61 59 58 63 62 60 62 59 65 64 70 69 69 69 67 67
58 56 58 55 60 61 61 60 59 62 60 61 61 62 62 61 59 50 52 60 65 61 61 62 62 65 64 64 63 63 63 65 65 64 66 66 68 69 68 68 69 68 63
56 51 51 51 51 55 57 61 55 54 51 47 45 50 57 52 47 45 43 43 45 48 61 64 64 64 65 65 64 63 64 63 63 61 63 65 67 66 64 68 66 66 65
56 55 50 49 49 52 53 54 57 57 48 45 44 44 42 45 43 43 42 42 43 45 57 62 63 64 65 63 63 63 63 64 64 66 67 65 64 61 60 63 62 60 61
55 52 51 49 48 48 51 54 57 56 55 56 48 48 47 43 41 41 41 42 56 51 59 62 63 63 63 63 63 62 63 63 64 65 63 61 60 60 60 62 62 61 59
51 50 50 49 48 49 52 56 57 56 56 56 57 51 51 43 41 40 40 59 60 59 61 62 63 63 63 63 62 62 61 62 62 62 62 62 60 59 58 58 58 54 55
51 53 52 50 48 48 49 58 56 57 57 56 56 57 58 57 57 55 56 59 59 60 62 61 61 61 61 60 60 60 60 60 61 61 61 60 61 58 57 56 55 55 55
47 47 52 47 46 46 46 50 58 58 57 56 59 55 47 58 57 57 58 58 59 59 60 60 60 60 60 59 59 59 59 59 59 59 60 60 60 57 55 54 53 54 53
48 47 48 46 46 46 49 51 56 60 57 57 55 54 49 56 57 57 56 57 57 58 58 58 58 58 59 59 58 58 58 58 58 58 58 58 56 54 53 52 52 51 49
49 51 50 51 54 53 53 53 58 59 58 57 57 56 55 55 55 54 55 57 57 57 59 57 57 58 58 59 59 58 58 59 59 58 57 55 54 52 51 50 48 46 43
47 53 49 50 52 52 55 55 55 54 57 58 56 55 54 53 53 53 53 53 54 57 57 58 58 58 59 59 59 58 56 57 57 55 53 48 47 44 45 43 40 40 40
44 45 45 46 47 49 55 55 56 57 56 56 56 56 55 53 53 52 53 55 56 56 54 52 53 54 54 53 53 49 39 35 50 45 49 48 46 47 42 40 40 40 39
43 43 43 48 48 46 50 53 57 57 57 56 56 55 54 53 53 53 53 54 53 50 49 49 49 49 48 48 47 37 33 33 40 37 44 46 43 43 41 41 40 38 39
Lifted_Index
-9 -9 -9 -8 -8 -7 -7 -7 -7 -7 -7 -6 -6 -5 -5 -5 -5 -4 -4 -3 -3 -3 -3 -3 -3 -3 -3 -3 -3 -3 -3 -2 -2 -2 -2 -1 -1 -1 -1 -1 -1 -0 1
-8 -8 -8 -7 -7 -7 -7 -7 -8 -7 -7 -7 -6 -5 -5 -5 -5 -4 -4 -3 -3 -3 -3 -3 -3 -3 -3 -3 -3 -3 -3 -2 -2 -2 -2 -1 -1 -1 -1 -0 -0 0 0
-7 -7 -5 -4 -5 -7 -7 -8 -8 -8 -7 -7 -6 -5 -5 -5 -5 -5 -4 -4 -3 -3 -3 -3 -3 -3 -3 -3 -2 -2 -3 -3 -3 -2 -2 -2 -1 -0 0 0 0 0 0
-4 -4 -3 -2 -3 -5 -7 -8 -9 -8 -8 -8 -7 -6 -6 -5 -5 -5 -4 -4 -4 -4 -3 -3 -3 -2 -2 -2 -2 -2 -3 -2 -2 -2 -2 -2 -1 -0 1 1 1 1 1
-3 -3 -2 -1 -2 -4 -6 -8 -9 -8 -8 -8 -8 -7 -7 -6 -5 -5 -5 -4 -4 -4 -3 -3 -3 -2 -2 -2 -2 -2 -2 -2 -2 -2 -2 -1 -1 -0 1 1 1 1 1
-4 -3 -2 -1 -1 -3 -5 -7 -8 -8 -8 -8 -8 -8 -7 -7 -6 -6 -5 -5 -4 -4 -3 -3 -2 -2 -2 -1 -1 -1 -1 -1 -1 -1 -1 -1 -1 -0 1 1 1 1 1
-4 -4 -2 -1 -1 -3 -5 -6 -7 -7 -8 -8 -8 -8 -8 -7 -7 -6 -5 -5 -4 -4 -3 -3 -2 -2 -2 -2 -1 -0 -0 -0 -0 -1 -1 -1 -1 -1 0 1 1 1 0
-3 -3 -2 -2 -2 -3 -4 -5 -5 -6 -6 -7 -8 -8 -8 -8 -7 -6 -6 -5 -5 -4 -4 -3 -2 -2 -2 -2 -2 -1 -1 -0 -0 -0 -1 -1 -1 -1 -0 1 1 1 0
-2 -2 -2 -2 -3 -4 -4 -3 -3 -4 -4 -5 -6 -7 -8 -8 -8 -7 -6 -5 -5 -5 -4 -3 -3 -3 -2 -2 -2 -2 -2 -1 -1 -1 -1 -0 -0 -0 -0 1 1 1 1
-2 -2 -2 -2 -3 -3 -3 -3 -3 -3 -4 -4 -5 -6 -7 -8 -8 -7 -6 -5 -4 -4 -4 -4 -3 -3 -2 -2 -2 -2 -2 -2 -2 -1 -1 0 1 0 0 1 1 1 0
-1 -1 -2 -2 -3 -3 -3 -3 -3 -3 -3 -3 -4 -5 -6 -7 -7 -6 -5 -4 -4 -3 -3 -3 -3 -2 -2 -2 -2 -2 -2 -2 -2 -2 -1 -0 0 0 0 0 0 0 0
0 0 -0 -1 -1 -2 -3 -3 -3 -3 -3 -3 -3 -4 -5 -5 -5 -5 -4 -4 -3 -2 -2 -2 -2 -2 -2 -2 -1 -1 -1 -1 -2 -2 -2 -2 -1 -0 -0 -0 -0 -0 -1
1 1 0 0 0 -1 -2 -2 -3 -3 -3 -3 -3 -3 -3 -4 -4 -4 -3 -3 -2 -1 -1 -1 -1 -2 -2 -2 -1 -1 -1 -1 -1 -1 -2 -2 -2 -1 -1 -1 -1 -1 -1
1 1 1 1 0 -0 -1 -1 -2 -2 -2 -2 -2 -2 -2 -2 -2 -2 -1 -1 -1 -0 0 1 0 -1 -1 -1 -1 -0 -0 -1 -1 -1 -2 -2 -2 -2 -2 -1 -1 -1 -1
2 2 2 1 1 0 -0 -0 -0 -0 0 0 0 0 0 -0 0 0 0 0 0 0 1 1 1 0 -1 -1 -0 0 0 -0 -0 -1 -1 -2 -2 -2 -2 -2 -2 -2 -1
2 3 3 3 2 1 1 1 1 1 2 2 2 2 2 1 1 1 1 1 1 2 2 2 1 1 0 0 0 1 1 1 0 -0 -1 -1 -1 -2 -2 -2 -1 -1 -1
3 3 4 4 3 3 2 2 1 2 2 3 3 3 3 2 2 2 2 2 2 2 2 2 1 1 1 1 1 1 1 1 1 0 0 -0 -1 -0 -0 -1 -1 -1 -0
4 4 4 4 4 4 3 2 2 2 2 3 3 4 4 3 3 2 2 2 2 2 2 2 2 2 2 1 2 2 2 1 1 1 1 1 0 1 0 -0 -0 -0 -0
4 4 4 4 4 4 3 2 1 2 2 3 3 4 4 4 3 2 2 2 1 1 1 1 1 2 2 2 2 2 2 2 2 2 2 2 1 1 1 1 0 1 1
3 3 3 3 3 3 2 1 0 1 1 2 2 3 4 4 3 2 2 1 1 1 1 1 1 1 1 1 2 2 3 3 3 3 3 2 2 2 2 2 2 2 2
3 2 2 2 2 1 1 0 -1 -1 -0 1 2 3 4 4 3 2 2 2 2 2 2 2 2 1 1 2 2 3 3 4 4 4 3 3 3 3 3 3 3 3 3
2 2 1 1 1 1 0 -0 -1 -1 -1 -0 1 2 3 3 3 3 3 3 3 3 3 3 2 2 2 3 4 4 4 4 4 4 4 4 4 4 4 4 4 4 4
2 2 1 1 0 0 -0 -1 -1 -1 -1 0 1 2 2 2 3 3 3 4 4 4 4 4 3 3 4 4 5 5 5 4 4 5 5 5 5 5 5 5 5 5 5
2 2 1 1 0 -0 -0 -1 -1 -1 -0 1 1 2 2 2 2 3 3 3 4 4 4 5 5 5 5 5 5 5 5 5 5 5 5 6 6 6 6 6 6 7 7
2 2 2 1 1 1 -0 -0 -1 -0 0 1 1 2 2 2 2 2 2 3 3 4 4 4 5 5 5 5 5 5 5 5 5 6 6 7 7 7 7 7 7 7 7
2 2 2 2 2 1 1 -0 -1 -1 -0 0 1 1 2 2 1 1 2 2 2 3 4 4 4 4 4 4 4 4 5 5 6 6 6 7 7 7 7 7 7 7 7